Tracking 30157 objects as of 12-Feb-2025
HD Live streaming from Space Station
objects crossing your sky now

STARLINK-4337

Track STARLINK-4337 now!
10-day predictions
STARLINK-4337 is classified as:


NORAD ID: 53053
Int'l Code: 2022-077L
Perigee: 568.3 km
Apogee: 572.0 km
Inclination: 97.7 °
Period: 95.9 minutes
Semi major axis: 6941 km
RCS: Unknown
Launch date: July 11, 2022
Source: United States (US)
Launch site: AIR FORCE WESTERN TEST RANGE (AFWTR)
Your satellite tracking list
Your tracking list is empty




NASA's NSSDC Master Catalog

Two Line Element Set (TLE):
1 53053U 22077L   25042.77479927 -.00000071  00000-0 -91505-6 0  9995
2 53053  97.6549 226.1994 0002723  58.0651 302.0837 15.01258945142268
Source of the keplerian elements: AFSPC